Overview Statistics Trail Chart Weather Telemetry Raw packets
 

This is the latest recevied weather packets stored in our database for station/object KC4GS-13. If no packets are shown the sender has not sent any weather packets the latest 10 day(s).

<< 83 84 85 86 87 88 89 >>
Time Temp. Humidity Pressure Rain* Wind** Luminosity Snow
1788012597 25.56° C 88% 1022.6 hPa 0 mm - 165 W/m² -
1788012292 25.56° C 89% 1022.5 hPa 0 mm - 144 W/m² -
1788011991 25° C 90% 1022.6 hPa 0 mm - 108 W/m² -
1788011685 25° C 91% 1022.6 hPa 0 mm - 121 W/m² -
1788011381 25° C 92% 1022.5 hPa 0 mm - 135 W/m² -
1788011080 25° C 93% 1022.7 hPa 0 mm - 118 W/m² -
1788010775 24.44° C 94% 1022.7 hPa 0 mm - 99 W/m² -
1788010473 23.89° C 94% 1022.5 hPa 0 mm - 105 W/m² -
1788010169 23.89° C 95% 1022.5 hPa 0 mm - 117 W/m² -
1788009863 23.89° C 96% 1022.4 hPa 0 mm - 118 W/m² -
1788009560 23.33° C 96% 1022.6 hPa 0 mm - 114 W/m² -
1788009256 23.33° C 97% 1022.4 hPa 0 mm - 116 W/m² -
1788008950 23.33° C 97% 1022.3 hPa 0 mm - 94 W/m² -
1788008647 23.33° C 97% 1022.4 hPa 0 mm - 130 W/m² -
1788008344 22.78° C 97% 1022.5 hPa 0 mm - 130 W/m² -
1788008042 22.78° C 97% 1022.7 hPa 0 mm - 115 W/m² -
1788007741 22.78° C 97% 1022.4 hPa 0 mm - 95 W/m² -
1788007436 22.78° C 97% 1022.4 hPa 0 mm - 70 W/m² -
1788007135 22.78° C 97% 1022.4 hPa 0 mm - 77 W/m² -
1788006834 22.22° C 97% 1022.3 hPa 0 mm - 73 W/m² -
1788006529 22.22° C 97% 1022.4 hPa 0 mm - 50 W/m² -
1788006224 22.22° C 97% 1022.6 hPa 0 mm - 49 W/m² -
1788005923 21.67° C 97% 1022.3 hPa 0 mm - 52 W/m² -
1788005618 21.67° C 97% 1022.3 hPa 0 mm - 41 W/m² -
1788005317 21.67° C 97% 1022.2 hPa 0 mm - 47 W/m² -

* Rain latest hour (hover to see other rain measurements)
** Current wind speed in m/s (hover to see current wind gust speed)